Time,TemperatureF,DewpointF,PressureIn,WindDirection,WindDirectionDegrees,WindSpeedMPH,WindSpeedGustMPH,Humidity,HourlyPrecipIn,Conditions,Clouds,dailyrainin,SoftwareType,DateUTC
2013-06-24 00:15:00,77.5,67.8,29.95,North,0,0.0,0.0,72,0.00,,,0.00,WUHU216HW,2013-06-24 05:15:00,
2013-06-24 00:20:00,77.5,67.8,29.95,North,0,0.0,0.0,72,0.00,,,0.00,WUHU216HW,2013-06-24 05:20:00,
2013-06-24 00:25:00,76.8,68.2,29.95,North,0,0.0,0.0,75,0.00,,,0.00,WUHU216HW,2013-06-24 05:25:00,
2013-06-24 00:30:00,76.8,68.2,29.95,North,0,0.0,0.0,75,0.00,,,0.00,WUHU216HW,2013-06-24 05:30:00,
2013-06-24 00:35:00,76.6,68.1,29.95,North,0,0.0,0.0,76,0.00,,,0.00,WUHU216HW,2013-06-24 05:35:00,
2013-06-24 00:40:00,76.6,68.1,29.95,North,0,0.0,0.0,76,0.00,,,0.00,WUHU216HW,2013-06-24 05:40:00,
2013-06-24 00:45:00,76.2,68.1,29.95,North,0,0.0,0.0,76,0.00,,,0.00,WUHU216HW,2013-06-24 05:45:00,
2013-06-24 00:50:00,76.2,68.1,29.96,North,0,0.0,0.0,76,0.00,,,0.00,WUHU216HW,2013-06-24 05:50:00,
2013-06-24 00:55:00,75.9,68.2,29.95,North,0,0.0,0.0,77,0.00,,,0.00,WUHU216HW,2013-06-24 05:55:00,
2013-06-24 01:01:00,75.9,68.2,29.95,North,0,0.0,0.0,78,0.00,,,0.00,WUHU216HW,2013-06-24 06:01:00,
2013-06-24 01:06:00,75.5,68.2,29.95,North,0,0.0,0.0,78,0.00,,,0.00,WUHU216HW,2013-06-24 06:06:00,
2013-06-24 01:11:00,75.5,68.2,29.96,North,0,0.0,0.0,78,0.00,,,0.00,WUHU216HW,2013-06-24 06:11:00,
2013-06-24 01:16:00,75.3,68.4,29.96,North,0,0.0,0.0,79,0.00,,,0.00,WUHU216HW,2013-06-24 06:16:00,
2013-06-24 01:22:00,75.3,68.4,29.96,North,0,0.0,0.0,80,0.00,,,0.00,WUHU216HW,2013-06-24 06:22:00,
2013-06-24 01:27:00,75.3,68.4,29.95,North,0,0.0,0.0,80,0.00,,,0.00,WUHU216HW,2013-06-24 06:27:00,
2013-06-24 01:32:00,75.0,68.5,29.96,North,0,0.0,0.0,80,0.00,,,0.00,WUHU216HW,2013-06-24 06:32:00,
2013-06-24 01:38:00,75.0,68.5,29.96,North,0,0.0,0.0,80,0.00,,,0.00,WUHU216HW,2013-06-24 06:38:00,
2013-06-24 01:43:00,75.0,68.5,29.96,North,0,0.0,0.0,80,0.00,,,0.00,WUHU216HW,2013-06-24 06:43:00,
2013-06-24 01:54:00,74.6,68.8,29.97,North,0,0.0,0.0,82,0.00,,,0.00,WUHU216HW,2013-06-24 06:54:00,
2013-06-24 01:59:00,74.4,68.3,29.97,North,0,0.0,0.0,81,0.00,,,0.00,WUHU216HW,2013-06-24 06:59:00,
2013-06-24 02:04:00,74.4,68.3,29.97,North,0,0.0,0.0,81,0.00,,,0.00,WUHU216HW,2013-06-24 07:04:00,
2013-06-24 02:09:00,74.4,68.3,29.97,North,0,0.0,0.0,83,0.00,,,0.00,WUHU216HW,2013-06-24 07:09:00,
2013-06-24 02:15:00,74.3,68.8,29.97,North,0,0.0,0.0,83,0.00,,,0.00,WUHU216HW,2013-06-24 07:15:00,
2013-06-24 02:20:00,74.3,68.8,29.97,North,0,0.0,0.0,83,0.00,,,0.00,WUHU216HW,2013-06-24 07:20:00,
2013-06-24 02:25:00,74.3,68.8,29.97,North,0,0.0,0.0,83,0.00,,,0.00,WUHU216HW,2013-06-24 07:25:00,
2013-06-24 02:30:00,74.3,68.8,29.97,North,0,0.0,0.0,83,0.00,,,0.00,WUHU216HW,2013-06-24 07:30:00,
2013-06-24 02:35:00,74.1,68.6,29.97,North,0,0.0,0.0,83,0.00,,,0.00,WUHU216HW,2013-06-24 07:35:00,
2013-06-24 02:40:00,74.1,68.6,29.97,North,0,0.0,0.0,83,0.00,,,0.00,WUHU216HW,2013-06-24 07:40:00,
2013-06-24 02:45:00,74.1,68.6,29.97,North,0,0.0,0.0,84,0.00,,,0.00,WUHU216HW,2013-06-24 07:45:00,
2013-06-24 02:50:00,74.1,68.6,29.97,North,0,0.0,0.0,84,0.00,,,0.00,WUHU216HW,2013-06-24 07:50:00,
2013-06-24 02:55:00,74.1,68.6,29.97,North,0,0.0,0.0,84,0.00,,,0.00,WUHU216HW,2013-06-24 07:55:00,
2013-06-24 03:01:00,74.1,68.6,29.97,North,0,0.0,0.0,83,0.00,,,0.00,WUHU216HW,2013-06-24 08:01:00,
2013-06-24 03:06:00,74.1,68.6,29.97,North,0,0.0,0.0,84,0.00,,,0.00,WUHU216HW,2013-06-24 08:06:00,
2013-06-24 03:11:00,74.3,68.8,29.96,North,0,0.0,0.0,83,0.00,,,0.00,WUHU216HW,2013-06-24 08:11:00,
2013-06-24 03:16:00,74.3,68.8,29.96,North,0,0.0,0.0,83,0.00,,,0.00,WUHU216HW,2013-06-24 08:16:00,
2013-06-24 03:21:00,74.1,68.6,29.96,North,0,0.0,0.0,83,0.00,,,0.00,WUHU216HW,2013-06-24 08:21:00,
2013-06-24 03:26:00,74.1,68.6,29.96,North,0,0.0,0.0,83,0.00,,,0.00,WUHU216HW,2013-06-24 08:26:00,
2013-06-24 03:36:00,74.1,69.0,29.96,North,0,0.0,0.0,83,0.00,,,0.00,WUHU216HW,2013-06-24 08:36:00,
2013-06-24 03:41:00,74.1,69.0,29.96,North,0,0.0,0.0,83,0.00,,,0.00,WUHU216HW,2013-06-24 08:41:00,
2013-06-24 03:46:00,74.1,69.0,29.96,North,0,0.0,0.0,84,0.00,,,0.00,WUHU216HW,2013-06-24 08:46:00,
2013-06-24 03:51:00,73.9,68.8,29.96,North,0,0.0,0.0,84,0.00,,,0.00,WUHU216HW,2013-06-24 08:51:00,
2013-06-24 03:56:00,73.9,68.8,29.96,North,0,0.0,0.0,84,0.00,,,0.00,WUHU216HW,2013-06-24 08:56:00,
2013-06-24 04:01:00,74.1,69.3,29.96,North,0,0.0,0.0,85,0.00,,,0.00,WUHU216HW,2013-06-24 09:01:00,
2013-06-24 04:06:00,74.1,69.3,29.96,North,0,0.0,0.0,85,0.00,,,0.00,WUHU216HW,2013-06-24 09:06:00,
2013-06-24 04:11:00,74.1,69.3,29.96,North,0,0.0,0.0,85,0.00,,,0.00,WUHU216HW,2013-06-24 09:11:00,
2013-06-24 05:11:00,73.5,68.8,29.97,North,0,0.0,0.0,86,0.00,,,0.00,WUHU216HW,2013-06-24 10:11:00,
2013-06-24 05:16:00,73.5,68.8,29.97,North,0,0.0,0.0,86,0.00,,,0.00,WUHU216HW,2013-06-24 10:16:00,
2013-06-24 05:21:00,73.2,68.7,29.97,North,0,0.0,0.0,86,0.00,,,0.00,WUHU216HW,2013-06-24 10:21:00,
2013-06-24 05:26:00,73.2,68.7,29.97,North,0,0.0,0.0,86,0.00,,,0.00,WUHU216HW,2013-06-24 10:26:00,
2013-06-24 05:35:00,73.0,68.6,29.96,North,0,0.0,0.0,86,0.00,,,0.00,WUHU216HW,2013-06-24 10:35:00,
2013-06-24 05:40:00,73.0,68.6,29.97,North,0,0.0,0.0,86,0.00,,,0.00,WUHU216HW,2013-06-24 10:40:00,
2013-06-24 05:45:00,73.0,68.6,29.97,North,0,0.0,0.0,86,0.00,,,0.00,WUHU216HW,2013-06-24 10:45:00,
2013-06-24 05:59:00,72.6,68.5,29.97,North,0,0.0,0.0,87,0.00,,,0.00,WUHU216HW,2013-06-24 10:59:00,
2013-06-24 06:04:00,72.6,68.5,29.97,North,0,0.0,0.0,87,0.00,,,0.00,WUHU216HW,2013-06-24 11:04:00,
2013-06-24 06:09:00,72.6,68.5,29.97,North,0,0.0,0.0,87,0.00,,,0.00,WUHU216HW,2013-06-24 11:09:00,
2013-06-24 06:16:00,72.6,68.5,29.97,North,0,0.0,0.0,87,0.00,,,0.00,WUHU216HW,2013-06-24 11:16:00,
2013-06-24 06:23:00,72.6,68.5,29.97,North,0,0.0,0.0,87,0.00,,,0.00,WUHU216HW,2013-06-24 11:23:00,
2013-06-24 06:28:00,72.6,68.5,29.97,North,0,0.0,0.0,87,0.00,,,0.00,WUHU216HW,2013-06-24 11:28:00,
2013-06-24 06:33:00,72.6,68.5,29.97,North,0,0.0,0.0,87,0.00,,,0.00,WUHU216HW,2013-06-24 11:33:00,
2013-06-24 06:44:00,73.0,68.9,29.97,North,0,0.0,0.0,87,0.00,,,0.00,WUHU216HW,2013-06-24 11:44:00,
2013-06-24 06:49:00,73.0,68.9,29.97,North,0,0.0,0.0,87,0.00,,,0.00,WUHU216HW,2013-06-24 11:49:00,
2013-06-24 06:58:00,73.4,69.3,29.98,North,0,0.0,0.0,87,0.00,,,0.00,WUHU216HW,2013-06-24 11:58:00,
2013-06-24 07:03:00,73.5,69.4,29.97,North,0,0.0,0.0,87,0.00,,,0.00,WUHU216HW,2013-06-24 12:03:00,
2013-06-24 07:08:00,73.5,69.4,29.97,North,0,0.0,0.0,87,0.00,,,0.00,WUHU216HW,2013-06-24 12:08:00,
2013-06-24 07:13:00,73.7,69.6,29.98,North,0,0.0,0.0,87,0.00,,,0.00,WUHU216HW,2013-06-24 12:13:00,
2013-06-24 07:19:00,73.7,69.6,29.98,North,0,0.0,0.0,87,0.00,,,0.00,WUHU216HW,2013-06-24 12:19:00,
2013-06-24 07:34:00,74.4,70.0,29.98,North,0,0.0,0.0,86,0.00,,,0.00,WUHU216HW,2013-06-24 12:34:00,
2013-06-24 07:39:00,74.6,69.8,29.98,North,0,0.0,0.0,85,0.00,,,0.00,WUHU216HW,2013-06-24 12:39:00,
2013-06-24 07:44:00,74.8,70.0,29.99,North,0,0.0,0.0,85,0.00,,,0.00,WUHU216HW,2013-06-24 12:44:00,
2013-06-24 07:49:00,75.0,69.9,29.99,North,0,0.0,0.0,84,0.00,,,0.00,WUHU216HW,2013-06-24 12:49:00,
2013-06-24 07:54:00,75.3,70.2,29.99,North,0,0.0,0.0,84,0.00,,,0.00,WUHU216HW,2013-06-24 12:54:00,
2013-06-24 07:59:00,75.3,70.2,30.00,North,0,0.0,0.0,83,0.00,,,0.00,WUHU216HW,2013-06-24 12:59:00,
2013-06-24 08:04:00,75.9,70.0,30.00,North,0,0.0,0.0,82,0.00,,,0.00,WUHU216HW,2013-06-24 13:04:00,
2013-06-24 08:09:00,76.1,69.8,30.00,North,0,0.0,0.0,81,0.00,,,0.00,WUHU216HW,2013-06-24 13:09:00,
2013-06-24 08:14:00,76.1,69.8,30.00,North,0,0.0,0.0,81,0.00,,,0.00,WUHU216HW,2013-06-24 13:14:00,
2013-06-24 08:19:00,76.2,70.0,30.00,North,0,0.0,0.0,81,0.00,,,0.00,WUHU216HW,2013-06-24 13:19:00,
2013-06-24 08:24:00,76.4,69.8,30.00,North,0,0.0,0.0,80,0.00,,,0.00,WUHU216HW,2013-06-24 13:24:00,
2013-06-24 08:29:00,76.4,69.8,30.00,North,0,0.0,0.0,80,0.00,,,0.00,WUHU216HW,2013-06-24 13:29:00,
2013-06-24 08:39:00,77.1,70.1,30.01,North,0,0.0,0.0,79,0.00,,,0.00,WUHU216HW,2013-06-24 13:39:00,
2013-06-24 08:44:00,78.0,70.6,30.00,North,0,0.0,0.0,78,0.00,,,0.00,WUHU216HW,2013-06-24 13:44:00,
2013-06-24 08:49:00,78.2,70.8,30.01,North,0,0.0,0.0,78,0.00,,,0.00,WUHU216HW,2013-06-24 13:49:00,
2013-06-24 08:54:00,78.2,70.8,30.01,North,0,0.0,0.0,78,0.00,,,0.00,WUHU216HW,2013-06-24 13:54:00,
2013-06-24 08:59:00,78.0,69.8,30.01,North,0,0.0,0.0,77,0.00,,,0.00,WUHU216HW,2013-06-24 13:59:00,
2013-06-24 09:04:00,78.4,70.6,30.01,North,0,0.0,0.0,77,0.00,,,0.00,WUHU216HW,2013-06-24 14:04:00,
2013-06-24 09:09:00,78.6,70.3,30.01,North,0,0.0,0.0,76,0.00,,,0.00,WUHU216HW,2013-06-24 14:09:00,
2013-06-24 09:14:00,78.6,70.3,30.01,North,0,0.0,0.0,76,0.00,,,0.00,WUHU216HW,2013-06-24 14:14:00,
2013-06-24 09:45:00,80.9,70.7,30.00,North,0,0.0,0.0,71,0.00,,,0.00,WUHU216HW,2013-06-24 14:45:00,
2013-06-24 09:50:00,80.9,70.7,30.00,North,0,0.0,0.0,71,0.00,,,0.00,WUHU216HW,2013-06-24 14:50:00,
2013-06-24 09:55:00,81.3,70.6,30.01,North,0,0.0,0.0,70,0.00,,,0.00,WUHU216HW,2013-06-24 14:55:00,
2013-06-24 10:00:00,81.5,70.7,30.00,North,0,0.0,0.0,70,0.00,,,0.00,WUHU216HW,2013-06-24 15:00:00,
2013-06-24 10:05:00,82.7,71.5,30.00,North,0,0.0,0.0,69,0.00,,,0.00,WUHU216HW,2013-06-24 15:05:00,
2013-06-24 10:10:00,82.5,71.3,30.01,North,0,0.0,0.0,69,0.00,,,0.00,WUHU216HW,2013-06-24 15:10:00,
2013-06-24 10:16:00,83.1,70.9,30.01,North,0,0.0,0.0,65,0.00,,,0.00,WUHU216HW,2013-06-24 15:16:00,
2013-06-24 10:21:00,83.4,70.8,30.01,North,0,0.0,0.0,66,0.00,,,0.00,WUHU216HW,2013-06-24 15:21:00,
2013-06-24 10:26:00,84.0,70.9,30.00,North,0,0.0,0.0,65,0.00,,,0.00,WUHU216HW,2013-06-24 15:26:00,
2013-06-24 10:31:00,84.9,70.0,30.00,North,0,0.0,0.0,61,0.00,,,0.00,WUHU216HW,2013-06-24 15:31:00,
2013-06-24 10:36:00,84.9,70.0,30.00,North,0,0.0,0.0,61,0.00,,,0.00,WUHU216HW,2013-06-24 15:36:00,
2013-06-24 10:51:00,87.2,71.7,30.00,North,0,0.0,0.0,60,0.00,,,0.00,WUHU216HW,2013-06-24 15:51:00,
2013-06-24 10:56:00,87.2,71.7,30.00,North,0,0.0,0.0,60,0.00,,,0.00,WUHU216HW,2013-06-24 15:56:00,
2013-06-24 11:05:00,88.5,71.8,30.00,North,0,0.0,0.0,58,0.00,,,0.00,WUHU216HW,2013-06-24 16:05:00,
2013-06-24 11:10:00,88.5,71.8,30.00,North,0,0.0,0.0,58,0.00,,,0.00,WUHU216HW,2013-06-24 16:10:00,
2013-06-24 11:16:00,89.7,72.4,30.00,North,0,0.0,0.0,57,0.00,,,0.00,WUHU216HW,2013-06-24 16:16:00,
2013-06-24 11:21:00,90.5,72.5,30.00,North,0,0.0,0.0,56,0.00,,,0.00,WUHU216HW,2013-06-24 16:21:00,
2013-06-24 11:26:00,90.8,72.3,30.00,North,0,0.0,0.0,55,0.00,,,0.00,WUHU216HW,2013-06-24 16:26:00,
2013-06-24 11:31:00,91.2,71.6,30.00,North,0,0.0,0.0,53,0.00,,,0.00,WUHU216HW,2013-06-24 16:31:00,
2013-06-24 11:36:00,91.0,71.4,30.00,North,0,0.0,0.0,53,0.00,,,0.00,WUHU216HW,2013-06-24 16:36:00,
2013-06-24 11:41:00,89.7,71.9,30.00,North,0,0.0,0.0,56,0.00,,,0.00,WUHU216HW,2013-06-24 16:41:00,
2013-06-24 11:47:00,89.2,71.4,30.00,North,0,0.0,0.0,56,0.00,,,0.00,WUHU216HW,2013-06-24 16:47:00,
2013-06-24 11:52:00,90.3,71.8,30.00,North,0,0.0,0.0,55,0.00,,,0.00,WUHU216HW,2013-06-24 16:52:00,
2013-06-24 11:57:00,90.8,71.2,30.00,North,0,0.0,0.0,53,0.00,,,0.00,WUHU216HW,2013-06-24 16:57:00,
2013-06-24 12:02:00,91.5,71.4,30.00,North,0,0.0,0.0,53,0.00,,,0.00,WUHU216HW,2013-06-24 17:02:00,
2013-06-24 12:08:00,91.5,71.4,30.00,North,0,0.0,0.0,53,0.00,,,0.00,WUHU216HW,2013-06-24 17:08:00,
2013-06-24 12:13:00,91.9,71.1,30.00,North,0,0.0,0.0,51,0.00,,,0.00,WUHU216HW,2013-06-24 17:13:00,
2013-06-24 12:18:00,91.9,71.1,30.00,North,0,0.0,0.0,51,0.00,,,0.00,WUHU216HW,2013-06-24 17:18:00,
2013-06-24 12:27:00,90.3,70.2,30.00,North,0,0.0,0.0,52,0.00,,,0.00,WUHU216HW,2013-06-24 17:27:00,
2013-06-24 12:32:00,90.3,70.2,30.00,North,0,0.0,0.0,52,0.00,,,0.00,WUHU216HW,2013-06-24 17:32:00,
2013-06-24 12:59:00,93.5,70.8,29.99,North,0,0.0,0.0,48,0.00,,,0.00,WUHU216HW,2013-06-24 17:59:00,
2013-06-24 13:05:00,93.5,70.8,29.99,North,0,0.0,0.0,48,0.00,,,0.00,WUHU216HW,2013-06-24 18:05:00,
2013-06-24 14:17:00,95.1,69.7,29.96,North,0,0.0,0.0,44,0.00,,,0.00,WUHU216HW,2013-06-24 19:17:00,
2013-06-24 14:42:00,97.3,68.2,29.95,North,0,0.0,0.0,40,0.00,,,0.00,WUHU216HW,2013-06-24 19:42:00,
2013-06-24 14:47:00,98.2,69.8,29.95,North,0,0.0,0.0,40,0.00,,,0.00,WUHU216HW,2013-06-24 19:47:00,
2013-06-24 14:52:00,97.7,70.0,29.95,North,0,0.0,0.0,41,0.00,,,0.00,WUHU216HW,2013-06-24 19:52:00,
2013-06-24 14:57:00,98.6,70.1,29.95,North,0,0.0,0.0,40,0.00,,,0.00,WUHU216HW,2013-06-24 19:57:00,
2013-06-24 15:02:00,98.6,70.1,29.95,North,0,0.0,0.0,40,0.00,,,0.00,WUHU216HW,2013-06-24 20:02:00,
2013-06-24 15:09:00,96.4,68.8,29.94,North,0,0.0,0.0,41,0.00,,,0.00,WUHU216HW,2013-06-24 20:09:00,
2013-06-24 15:14:00,95.5,68.0,29.94,North,0,0.0,0.0,41,0.00,,,0.00,WUHU216HW,2013-06-24 20:14:00,
2013-06-24 15:19:00,95.5,68.0,29.94,North,0,0.0,0.0,41,0.00,,,0.00,WUHU216HW,2013-06-24 20:19:00,
2013-06-24 15:24:00,96.8,68.5,29.94,North,0,0.0,0.0,40,0.00,,,0.00,WUHU216HW,2013-06-24 20:24:00,
2013-06-24 15:29:00,97.7,67.6,29.94,North,0,0.0,0.0,38,0.00,,,0.00,WUHU216HW,2013-06-24 20:29:00,
2013-06-24 15:34:00,97.8,68.6,29.93,North,0,0.0,0.0,39,0.00,,,0.00,WUHU216HW,2013-06-24 20:34:00,
2013-06-24 15:39:00,97.3,69.0,29.93,North,0,0.0,0.0,40,0.00,,,0.00,WUHU216HW,2013-06-24 20:39:00,
2013-06-24 15:44:00,97.3,69.0,29.93,North,0,0.0,0.0,40,0.00,,,0.00,WUHU216HW,2013-06-24 20:44:00,
2013-06-24 15:49:00,97.3,67.3,29.93,North,0,0.0,0.0,38,0.00,,,0.00,WUHU216HW,2013-06-24 20:49:00,
2013-06-24 15:54:00,97.3,67.3,29.92,North,0,0.0,0.0,39,0.00,,,0.00,WUHU216HW,2013-06-24 20:54:00,
2013-06-24 16:00:00,97.3,67.3,29.92,North,0,0.0,0.0,39,0.00,,,0.00,WUHU216HW,2013-06-24 21:00:00,
2013-06-24 16:24:00,98.2,67.3,29.92,North,0,0.0,0.0,37,0.00,,,0.00,WUHU216HW,2013-06-24 21:24:00,
2013-06-24 16:29:00,94.8,65.9,29.91,North,0,0.0,0.0,39,0.00,,,0.00,WUHU216HW,2013-06-24 21:29:00,
2013-06-24 16:35:00,94.6,66.5,29.92,North,0,0.0,0.0,40,0.00,,,0.00,WUHU216HW,2013-06-24 21:35:00,
2013-06-24 16:40:00,96.4,67.3,29.91,North,0,0.0,0.0,39,0.00,,,0.00,WUHU216HW,2013-06-24 21:40:00,
2013-06-24 16:45:00,96.9,66.2,29.91,North,0,0.0,0.0,38,0.00,,,0.00,WUHU216HW,2013-06-24 21:45:00,
2013-06-24 16:50:00,97.5,67.5,29.91,North,0,0.0,0.0,38,0.00,,,0.00,WUHU216HW,2013-06-24 21:50:00,
2013-06-24 16:56:00,97.3,66.5,29.91,North,0,0.0,0.0,37,0.00,,,0.00,WUHU216HW,2013-06-24 21:56:00,
2013-06-24 17:03:00,96.9,67.8,29.90,North,0,0.0,0.0,39,0.00,,,0.00,WUHU216HW,2013-06-24 22:03:00,
2013-06-24 17:08:00,97.3,68.2,29.90,North,0,0.0,0.0,39,0.00,,,0.00,WUHU216HW,2013-06-24 22:08:00,
2013-06-24 17:13:00,97.7,67.6,29.90,North,0,0.0,0.0,38,0.00,,,0.00,WUHU216HW,2013-06-24 22:13:00,
2013-06-24 17:18:00,96.0,68.5,29.90,North,0,0.0,0.0,41,0.00,,,0.00,WUHU216HW,2013-06-24 22:18:00,
2013-06-24 17:23:00,95.5,68.0,29.90,North,0,0.0,0.0,41,0.00,,,0.00,WUHU216HW,2013-06-24 22:23:00,
2013-06-24 17:28:00,95.5,68.0,29.90,North,0,0.0,0.0,41,0.00,,,0.00,WUHU216HW,2013-06-24 22:28:00,
2013-06-24 17:34:00,95.7,67.5,29.89,North,0,0.0,0.0,40,0.00,,,0.00,WUHU216HW,2013-06-24 22:34:00,
2013-06-24 17:40:00,95.7,67.5,29.89,North,0,0.0,0.0,40,0.00,,,0.00,WUHU216HW,2013-06-24 22:40:00,
2013-06-24 17:45:00,95.7,68.9,29.89,North,0,0.0,0.0,42,0.00,,,0.00,WUHU216HW,2013-06-24 22:45:00,
2013-06-24 17:50:00,95.5,67.4,29.89,North,0,0.0,0.0,40,0.00,,,0.00,WUHU216HW,2013-06-24 22:50:00,
2013-06-24 17:55:00,94.6,67.9,29.89,North,0,0.0,0.0,42,0.00,,,0.00,WUHU216HW,2013-06-24 22:55:00,
2013-06-24 18:00:00,93.7,67.0,29.89,North,0,0.0,0.0,42,0.00,,,0.00,WUHU216HW,2013-06-24 23:00:00,
2013-06-24 18:05:00,93.0,66.4,29.89,North,0,0.0,0.0,42,0.00,,,0.00,WUHU216HW,2013-06-24 23:05:00,
2013-06-24 18:10:00,92.4,65.3,29.89,North,0,0.0,0.0,41,0.00,,,0.00,WUHU216HW,2013-06-24 23:10:00,
2013-06-24 18:15:00,91.7,65.3,29.88,North,0,0.0,0.0,42,0.00,,,0.00,WUHU216HW,2013-06-24 23:15:00,
2013-06-24 18:20:00,91.7,65.3,29.88,North,0,0.0,0.0,42,0.00,,,0.00,WUHU216HW,2013-06-24 23:20:00,
2013-06-24 18:30:00,91.2,65.4,29.88,North,0,0.0,0.0,43,0.00,,,0.00,WUHU216HW,2013-06-24 23:30:00,
2013-06-24 18:41:00,92.3,66.4,29.88,North,0,0.0,0.0,42,0.00,,,0.00,WUHU216HW,2013-06-24 23:41:00,
2013-06-24 18:46:00,91.7,65.9,29.88,North,0,0.0,0.0,43,0.00,,,0.00,WUHU216HW,2013-06-24 23:46:00,
2013-06-24 18:51:00,91.7,65.9,29.88,North,0,0.0,0.0,43,0.00,,,0.00,WUHU216HW,2013-06-24 23:51:00,
2013-06-24 18:56:00,91.7,65.9,29.88,North,0,0.0,0.0,43,0.00,,,0.00,WUHU216HW,2013-06-24 23:56:00,
2013-06-24 19:01:00,91.5,65.1,29.88,North,0,0.0,0.0,42,0.00,,,0.00,WUHU216HW,2013-06-25 00:01:00,
2013-06-24 19:07:00,91.5,65.1,29.88,North,0,0.0,0.0,42,0.00,,,0.00,WUHU216HW,2013-06-25 00:07:00,
2013-06-24 19:23:00,90.1,65.1,29.89,North,0,0.0,0.0,44,0.00,,,0.00,WUHU216HW,2013-06-25 00:23:00,
2013-06-24 19:28:00,89.4,64.5,29.89,North,0,0.0,0.0,45,0.00,,,0.00,WUHU216HW,2013-06-25 00:28:00,
2013-06-24 19:33:00,89.0,64.8,29.89,North,0,0.0,0.0,45,0.00,,,0.00,WUHU216HW,2013-06-25 00:33:00,
2013-06-24 19:39:00,88.5,65.0,29.89,North,0,0.0,0.0,46,0.00,,,0.00,WUHU216HW,2013-06-25 00:39:00,
2013-06-24 19:44:00,88.3,64.8,29.89,North,0,0.0,0.0,46,0.00,,,0.00,WUHU216HW,2013-06-25 00:44:00,
2013-06-24 19:49:00,88.1,65.9,29.89,North,0,0.0,0.0,48,0.00,,,0.00,WUHU216HW,2013-06-25 00:49:00,
2013-06-24 19:54:00,88.1,65.9,29.89,North,0,0.0,0.0,48,0.00,,,0.00,WUHU216HW,2013-06-25 00:54:00,
2013-06-24 20:00:00,87.6,65.5,29.89,North,0,0.0,0.0,48,0.00,,,0.00,WUHU216HW,2013-06-25 01:00:00,
2013-06-24 20:05:00,87.6,65.5,29.88,North,0,0.0,0.0,48,0.00,,,0.00,WUHU216HW,2013-06-25 01:05:00,
2013-06-24 20:10:00,87.0,65.6,29.90,North,0,0.0,0.0,49,0.00,,,0.00,WUHU216HW,2013-06-25 01:10:00,
2013-06-24 20:15:00,87.0,65.6,29.90,North,0,0.0,0.0,50,0.00,,,0.00,WUHU216HW,2013-06-25 01:15:00,
2013-06-24 20:20:00,86.7,65.3,29.90,North,0,0.0,0.0,50,0.00,,,0.00,WUHU216HW,2013-06-25 01:20:00,
2013-06-24 20:25:00,86.7,65.3,29.90,North,0,0.0,0.0,50,0.00,,,0.00,WUHU216HW,2013-06-25 01:25:00,
2013-06-24 20:35:00,85.8,65.6,29.90,North,0,0.0,0.0,51,0.00,,,0.00,WUHU216HW,2013-06-25 01:35:00,
2013-06-24 20:40:00,85.6,65.5,29.90,North,0,0.0,0.0,51,0.00,,,0.00,WUHU216HW,2013-06-25 01:40:00,
2013-06-24 20:45:00,85.2,65.6,29.90,North,0,0.0,0.0,52,0.00,,,0.00,WUHU216HW,2013-06-25 01:45:00,
2013-06-24 20:50:00,85.1,65.5,29.90,North,0,0.0,0.0,52,0.00,,,0.00,WUHU216HW,2013-06-25 01:50:00,
2013-06-24 20:55:00,84.9,65.8,29.90,North,0,0.0,0.0,53,0.00,,,0.00,WUHU216HW,2013-06-25 01:55:00,
2013-06-24 21:00:00,84.7,65.7,29.90,North,0,0.0,0.0,53,0.00,,,0.00,WUHU216HW,2013-06-25 02:00:00,
2013-06-24 21:05:00,84.5,66.0,29.91,North,0,0.0,0.0,54,0.00,,,0.00,WUHU216HW,2013-06-25 02:05:00,
2013-06-24 21:10:00,84.5,66.0,29.91,North,0,0.0,0.0,54,0.00,,,0.00,WUHU216HW,2013-06-25 02:10:00,
2013-06-24 21:15:00,84.0,65.5,29.91,North,0,0.0,0.0,54,0.00,,,0.00,WUHU216HW,2013-06-25 02:15:00,
2013-06-24 21:20:00,83.8,65.9,29.91,North,0,0.0,0.0,55,0.00,,,0.00,WUHU216HW,2013-06-25 02:20:00,
2013-06-24 21:25:00,83.6,65.7,29.91,North,0,0.0,0.0,55,0.00,,,0.00,WUHU216HW,2013-06-25 02:25:00,
2013-06-24 21:30:00,83.6,65.7,29.91,North,0,0.0,0.0,55,0.00,,,0.00,WUHU216HW,2013-06-25 02:30:00,
2013-06-24 21:39:00,83.1,66.2,29.91,North,0,0.0,0.0,57,0.00,,,0.00,WUHU216HW,2013-06-25 02:39:00,
2013-06-24 21:44:00,83.1,66.2,29.91,North,0,0.0,0.0,57,0.00,,,0.00,WUHU216HW,2013-06-25 02:44:00,
2013-06-24 21:50:00,82.9,66.0,29.92,North,0,0.0,0.0,57,0.00,,,0.00,WUHU216HW,2013-06-25 02:50:00,
2013-06-24 21:55:00,82.5,66.2,29.92,North,0,0.0,0.0,58,0.00,,,0.00,WUHU216HW,2013-06-25 02:55:00,
2013-06-24 22:00:00,82.5,66.2,29.92,North,0,0.0,0.0,58,0.00,,,0.00,WUHU216HW,2013-06-25 03:00:00,
2013-06-24 22:05:00,82.2,65.8,29.92,North,0,0.0,0.0,59,0.00,,,0.00,WUHU216HW,2013-06-25 03:05:00,
2013-06-24 22:10:00,82.0,66.2,29.92,North,0,0.0,0.0,59,0.00,,,0.00,WUHU216HW,2013-06-25 03:10:00,
2013-06-24 22:16:00,82.0,66.2,29.92,North,0,0.0,0.0,59,0.00,,,0.00,WUHU216HW,2013-06-25 03:16:00,
2013-06-24 22:22:00,81.6,65.9,29.93,North,0,0.0,0.0,60,0.00,,,0.00,WUHU216HW,2013-06-25 03:22:00,
2013-06-24 22:27:00,81.5,66.2,29.94,North,0,0.0,0.0,60,0.00,,,0.00,WUHU216HW,2013-06-25 03:27:00,
2013-06-24 22:33:00,81.3,66.1,29.94,North,0,0.0,0.0,60,0.00,,,0.00,WUHU216HW,2013-06-25 03:33:00,
2013-06-24 22:38:00,81.1,66.4,29.94,North,0,0.0,0.0,61,0.00,,,0.00,WUHU216HW,2013-06-25 03:38:00,
2013-06-24 22:44:00,81.1,66.4,29.95,North,0,0.0,0.0,61,0.00,,,0.00,WUHU216HW,2013-06-25 03:44:00,
2013-06-24 22:49:00,81.1,66.4,29.95,North,0,0.0,0.0,61,0.00,,,0.00,WUHU216HW,2013-06-25 03:49:00,
2013-06-24 23:00:00,80.4,67.1,29.95,North,0,0.0,0.0,65,0.00,,,0.00,WUHU216HW,2013-06-25 04:00:00,
2013-06-24 23:05:00,80.2,67.3,29.95,North,0,0.0,0.0,66,0.00,,,0.00,WUHU216HW,2013-06-25 04:05:00,
2013-06-24 23:10:00,80.0,67.6,29.95,North,0,0.0,0.0,66,0.00,,,0.00,WUHU216HW,2013-06-25 04:10:00,
2013-06-24 23:15:00,80.0,67.6,29.95,North,0,0.0,0.0,66,0.00,,,0.00,WUHU216HW,2013-06-25 04:15:00,
2013-06-24 23:26:00,79.5,67.5,29.96,North,0,0.0,0.0,67,0.00,,,0.00,WUHU216HW,2013-06-25 04:26:00,
2013-06-24 23:31:00,79.5,67.5,29.96,North,0,0.0,0.0,67,0.00,,,0.00,WUHU216HW,2013-06-25 04:31:00,
2013-06-24 23:40:00,79.1,68.1,29.96,North,0,0.0,0.0,69,0.00,,,0.00,WUHU216HW,2013-06-25 04:40:00,
2013-06-24 23:59:00,78.6,68.0,29.96,North,0,0.0,0.0,70,0.00,,,0.00,WUHU216HW,2013-06-25 04:59:00,